TimeCST,TemperatureF,Dew PointF,Humidity,Sea Level PressureIn,VisibilityMPH,Wind Direction,Wind SpeedMPH,Gust SpeedMPH,PrecipitationIn,Events,Conditions,WindDirDegrees,DateUTC
12:15 AM,28.4,19.4,69,30.31,10.0,NW,4.6,-,N/A,,Unknown,310,2012-11-24 06:15:00
12:35 AM,28.4,19.4,69,30.31,10.0,WNW,4.6,-,N/A,,Unknown,300,2012-11-24 06:35:00
1:36 AM,28.4,19.4,69,30.31,10.0,Calm,Calm,-,N/A,,Unknown,0,2012-11-24 07:36:00
1:56 AM,26.6,19.4,74,30.30,10.0,WNW,3.5,-,N/A,,Unknown,300,2012-11-24 07:56:00
2:16 AM,26.6,19.4,74,30.30,10.0,NNW,3.5,-,N/A,,Unknown,330,2012-11-24 08:16:00
2:36 AM,26.6,19.4,74,30.30,10.0,Calm,Calm,-,N/A,,Unknown,0,2012-11-24 08:36:00
2:56 AM,26.6,19.4,74,30.29,10.0,Calm,Calm,-,N/A,,Unknown,0,2012-11-24 08:56:00
3:16 AM,26.6,19.4,74,30.29,10.0,Calm,Calm,-,N/A,,Unknown,0,2012-11-24 09:16:00
3:35 AM,26.6,19.4,74,30.29,10.0,Calm,Calm,-,N/A,,Unknown,0,2012-11-24 09:35:00
3:36 AM,26.6,19.4,74,30.29,10.0,Calm,Calm,-,N/A,,Unknown,0,2012-11-24 09:36:00
3:55 AM,26.6,19.4,74,30.29,10.0,Calm,Calm,-,N/A,,Unknown,0,2012-11-24 09:55:00
4:15 AM,26.6,19.4,74,30.29,10.0,Calm,Calm,-,N/A,,Unknown,0,2012-11-24 10:15:00
4:35 AM,26.6,19.4,74,30.29,10.0,Calm,Calm,-,N/A,,Unknown,0,2012-11-24 10:35:00
4:55 AM,26.6,19.4,74,30.30,10.0,Calm,Calm,-,N/A,,Unknown,0,2012-11-24 10:55:00
5:15 AM,24.8,19.4,80,30.30,10.0,NW,3.5,-,N/A,,Unknown,320,2012-11-24 11:15:00
5:35 AM,24.8,19.4,80,30.29,10.0,NW,3.5,-,N/A,,Unknown,320,2012-11-24 11:35:00
5:55 AM,24.8,19.4,80,30.30,10.0,WNW,3.5,-,N/A,,Unknown,290,2012-11-24 11:55:00
6:15 AM,24.8,19.4,80,30.30,10.0,Calm,Calm,-,N/A,,Unknown,0,2012-11-24 12:15:00
6:35 AM,24.8,19.4,80,30.30,10.0,Calm,Calm,-,N/A,,Unknown,0,2012-11-24 12:35:00
6:55 AM,24.8,19.4,80,30.31,10.0,Calm,Calm,-,N/A,,Unknown,0,2012-11-24 12:55:00
7:15 AM,24.8,19.4,80,30.31,10.0,Calm,Calm,-,N/A,,Unknown,0,2012-11-24 13:15:00
7:35 AM,24.8,19.4,80,30.31,10.0,Calm,Calm,-,N/A,,Unknown,0,2012-11-24 13:35:00
7:55 AM,26.6,19.4,74,30.32,10.0,Calm,Calm,-,N/A,,Unknown,0,2012-11-24 13:55:00
8:35 AM,28.4,19.4,69,30.33,10.0,WNW,5.8,-,N/A,,Unknown,300,2012-11-24 14:35:00
8:55 AM,28.4,19.4,69,30.34,10.0,NNW,5.8,-,N/A,,Unknown,340,2012-11-24 14:55:00
9:15 AM,28.4,19.4,69,30.34,10.0,NW,4.6,-,N/A,,Unknown,320,2012-11-24 15:15:00
9:35 AM,28.4,19.4,69,30.34,10.0,NNW,3.5,-,N/A,,Unknown,330,2012-11-24 15:35:00
9:55 AM,30.2,19.4,64,30.34,10.0,NW,5.8,-,N/A,,Unknown,320,2012-11-24 15:55:00
10:15 AM,30.2,19.4,64,30.34,10.0,NW,4.6,-,N/A,,Unknown,310,2012-11-24 16:15:00
10:35 AM,30.2,19.4,64,30.34,10.0,North,4.6,-,N/A,,Unknown,350,2012-11-24 16:35:00
10:55 AM,30.2,21.2,69,30.33,10.0,NW,5.8,-,N/A,,Unknown,320,2012-11-24 16:55:00
11:15 AM,32.0,21.2,64,30.32,10.0,West,4.6,-,N/A,,Unknown,280,2012-11-24 17:15:00
11:35 AM,32.0,21.2,64,30.31,10.0,WNW,5.8,-,N/A,,Unknown,300,2012-11-24 17:35:00
11:55 AM,33.8,21.2,60,30.30,10.0,WSW,3.5,-,N/A,,Unknown,250,2012-11-24 17:55:00
12:15 PM,33.8,21.2,60,30.29,10.0,WSW,4.6,-,N/A,,Unknown,250,2012-11-24 18:15:00
12:35 PM,33.8,21.2,60,30.28,10.0,SSW,3.5,-,N/A,,Unknown,210,2012-11-24 18:35:00
12:55 PM,33.8,21.2,60,30.27,10.0,Calm,Calm,-,N/A,,Unknown,0,2012-11-24 18:55:00
1:15 PM,35.6,21.2,56,30.26,10.0,West,5.8,-,N/A,,Unknown,260,2012-11-24 19:15:00
1:35 PM,35.6,21.2,56,30.25,10.0,Calm,Calm,-,N/A,,Unknown,0,2012-11-24 19:35:00
1:55 PM,35.6,21.2,56,30.25,10.0,SW,4.6,-,N/A,,Unknown,220,2012-11-24 19:55:00
2:15 PM,35.6,21.2,56,30.24,10.0,Calm,Calm,-,N/A,,Unknown,0,2012-11-24 20:15:00
2:35 PM,35.6,21.2,56,30.23,10.0,West,3.5,-,N/A,,Unknown,280,2012-11-24 20:35:00
2:55 PM,35.6,21.2,56,30.23,10.0,NW,3.5,-,N/A,,Unknown,320,2012-11-24 20:55:00
3:15 PM,35.6,21.2,56,30.22,10.0,Calm,Calm,-,N/A,,Unknown,0,2012-11-24 21:15:00
3:35 PM,35.6,21.2,56,30.22,10.0,Calm,Calm,-,N/A,,Unknown,0,2012-11-24 21:35:00
3:55 PM,35.6,21.2,56,30.22,10.0,Calm,Calm,-,N/A,,Unknown,0,2012-11-24 21:55:00
4:15 PM,33.8,23.0,65,30.21,10.0,SW,3.5,-,N/A,,Unknown,220,2012-11-24 22:15:00
4:35 PM,33.8,23.0,65,30.21,10.0,SSW,3.5,-,N/A,,Unknown,210,2012-11-24 22:35:00
4:55 PM,33.8,24.8,70,30.21,10.0,SSW,3.5,-,N/A,,Unknown,210,2012-11-24 22:55:00
5:15 PM,33.8,23.0,65,30.20,10.0,Calm,Calm,-,N/A,,Unknown,0,2012-11-24 23:15:00
5:35 PM,33.8,24.8,70,30.19,10.0,Calm,Calm,-,N/A,,Unknown,0,2012-11-24 23:35:00
5:55 PM,32.0,24.8,75,30.19,10.0,Calm,Calm,-,N/A,,Unknown,0,2012-11-24 23:55:00
6:15 PM,30.2,24.8,80,30.19,10.0,Calm,Calm,-,N/A,,Unknown,0,2012-11-25 00:15:00
6:35 PM,30.2,24.8,80,30.18,10.0,Calm,Calm,-,N/A,,Unknown,0,2012-11-25 00:35:00
6:55 PM,28.4,24.8,86,30.18,10.0,Calm,Calm,-,N/A,,Unknown,0,2012-11-25 00:55:00
7:15 PM,28.4,24.8,86,30.18,10.0,Calm,Calm,-,N/A,,Unknown,0,2012-11-25 01:15:00
7:35 PM,30.2,24.8,80,30.16,10.0,Calm,Calm,-,N/A,,Unknown,0,2012-11-25 01:35:00
7:55 PM,28.4,24.8,86,30.17,10.0,SSW,3.5,-,N/A,,Unknown,210,2012-11-25 01:55:00
8:15 PM,28.4,24.8,86,30.15,10.0,Calm,Calm,-,N/A,,Unknown,0,2012-11-25 02:15:00
8:35 PM,28.4,24.8,86,30.15,10.0,Calm,Calm,-,N/A,,Unknown,0,2012-11-25 02:35:00
8:55 PM,28.4,24.8,86,30.15,10.0,Calm,Calm,-,N/A,,Unknown,0,2012-11-25 02:55:00
9:15 PM,28.4,23.0,80,30.14,10.0,SSE,3.5,-,N/A,,Unknown,160,2012-11-25 03:15:00
9:35 PM,28.4,23.0,80,30.13,10.0,SSE,4.6,-,N/A,,Unknown,160,2012-11-25 03:35:00
9:55 PM,28.4,23.0,80,30.12,10.0,South,3.5,-,N/A,,Unknown,170,2012-11-25 03:55:00
10:15 PM,28.4,23.0,80,30.11,10.0,South,4.6,-,N/A,,Unknown,180,2012-11-25 04:15:00
10:35 PM,30.2,24.8,80,30.10,10.0,South,4.6,-,N/A,,Unknown,180,2012-11-25 04:35:00
10:55 PM,30.2,24.8,80,30.11,10.0,South,4.6,-,N/A,,Unknown,190,2012-11-25 04:55:00
11:15 PM,30.2,24.8,80,30.10,10.0,South,5.8,-,N/A,,Unknown,180,2012-11-25 05:15:00
11:35 PM,30.2,24.8,80,30.10,10.0,South,4.6,-,N/A,,Unknown,190,2012-11-25 05:35:00
11:55 PM,30.2,24.8,80,30.09,10.0,SSW,3.5,-,N/A,,Unknown,200,2012-11-25 05:55:00